sat.trackr.live / text

‹ back to catalog

STARLINK-37351

NORAD 68742 · 2026-082Q

PAYLOAD ACTIVE UNKNOWN

§ Identity

Operator
Country
US
Launch date
2026-04-15
Launch site
AFWTR
Launch vehicle
Mass (kg)
RCS (m²)

Purposes: comms

External: N2YO · Heavens-Above · Gunter

§ Orbital elements

Epoch: 2026-05-25T04:00:03.998880Z

Period
92.15 min
Inclination
97.2855°
Eccentricity
0.0002041
Mean motion
15.62729962 rev/d
Perigee alt
378.4 km
Apogee alt
381.2 km
Semi-major
6,757.9 km
B*
-2.3927e-2
RAAN
8.8436°
Arg perigee
99.1192°
Mean anomaly
142.2084°
Rev number
594

§ Raw data

STARLINK-373511 68742U 26082Q   26145.16671295 -.01898787  00000+0 -23927-1 0  99932 68742  97.2855   8.8436 0002041  99.1192 142.2084 15.62729962  5940

JSON: /api/v1/satellites/68742 · /tle

For live sub-satellite position, see the globe view (requires WebGL).

§ Visibility from observer

Set your observer location to see the next 7 days of passes ≥ 10°. The values pass through the URL so the page stays shareable.

No JS? Fill the form by hand. The geolocation button needs JavaScript.